Location: Unspecified
(48.2082°N, 0.0000°E)
Time: 11:26:19
(UTC+00:00)

Tiros 1 despin weight - Pass Details

Date: 25 June 2019
Orbit: 594 x 643 km, 48.2° (Epoch: 22 July)

Event Time Altitude Azimuth Distance (km) Brightness Sun altitude
Rises 23:07:55 0° 249° (WSW) 2,855 ? -17.4°
Reaches altitude 10° 23:10:14 10° 247° (WSW) 1,946 ? -17.5°
Maximum altitude 23:14:40 71° 164° (SSE) 636 ? -17.6°
Drops below altitude 10° 23:19:04 10° 81° (E) 1,931 ? -17.7°
Sets 23:21:21 0° 79° (E) 2,832 ? -17.8°
